Погода в Альтенбурге

Германия     50°58′56″N   12°26′17″E
темп.,
°C
ветер,
м/с
пор.,
м/с
влажн.,
%
обл.,
%
осадки,
мм/ч
давл.,
гПа
погр.,
м
28 июня, вт
вт2823:00+18зсз4109176 2.0 1018258
02:00+16з2494100 2.8 1020138
05:00+16з2495100 0.4 1021226
08:00+16зсз46817 0.4 1022407
11:00+21сз33526 0.0 10221273
14:00+25ссв22395 0.0 10201929
17:00+25в434260 0.0 10191849
20:00+22в345692 0.0 1018123
29 июня, ср
ср2923:00+18в336694 0.0 101933
02:00+17всв366584 0.0 101899
05:00+18св3956100 0.0 1016285
08:00+20всв41070100 0.0 1016466
11:00+22в6870100 0.0 1015766
14:00+22всв677498 0.1 1014686
17:00+26всв665682 0.0 10121257
20:00+22всв577689 0.3 1012656
30 июня, чт
чт3023:00+18всв3698100 1.4 1012232
02:00+18ссв1198100 2.8 101282
05:00+18зсз2399100 0.1 1012144
08:00+19зюз1295100 0.1 1012230
11:00+22зюз1280100 0.0 1012595
14:00+25ююз2364100 0.1 10121055
17:00+27ю2356100 0.0 10111123
20:00+26вюв2363100 0.0 101058
1 июля, пт
пт123:00+21ююв22821 0.1 101117
02:00+19ю338710 0.1 101129
05:00+16сз51095100 0.0 1014471
08:00+16зсз5689100 0.1 1015603
11:00+17зсз4583100 0.1 1016623
14:00+16зсз5780100 0.4 1018765
17:00+12з4796100 1.9 1021387
20:00+13з369297 2.3 1022431
2 июля, сб
сб223:00+11ююз349466 0.0 102466
02:00+11ююз479236 0.0 1024131
05:00+11ююз369081 0.0 1024117
08:00+16юз34754 0.0 1024277
11:00+21сз24410 0.0 10241768
14:00+24з23327 0.0 10232438
17:00+25юв123016 0.0 10232504
20:00+22юв34442 0.0 102281